Weather History for Ozark, AL

Change the Weather History Date:

Friday, September 12, 2014

  Actual Average Record
Temperature  
Mean Temperature 82 °F -  
Max Temperature 93 °F 83 °F 98 °F (2010)
Min Temperature 72 °F 64 °F 59 °F (2003)
Cooling Degree Days 17    
Growing Degree Days 32 (Base 50)    
Moisture  
Dew Point 72 °F    
Average Humidity 73    
Maximum Humidity 96    
Minimum Humidity 48    
Precipitation  
Precipitation 0.00 in - - ()
Sea Level Pressure  
Sea Level Pressure 30.02 in    
Wind  
Wind Speed 2 mph (NW)    
Max Wind Speed 7 mph    
Max Gust Speed -    
Visibility 10 miles    
Events      
Averages and records for this station are not official NWS values.
T = Trace of Precipitation, MM = Missing Value Source: NWS Daily Summary

Daily Weather History Graph

Daily Weather History Graph

Search for Another Location

Airport:

Trip Planner

Search our weather history database for the weather conditions in past years. The results will help you decide how hot, cold, wet, or windy it might be!

Date:

Astronomy

Sep. 12, 2014 Rise Set
Actual Time 6:25 AM CDT 6:52 PM CDT
Civil Twilight 6:00 AM CDT 7:16 PM CDT
Nautical Twilight 5:32 AM CDT 7:45 PM CDT
Astronomical Twilight 5:03 AM CDT 8:14 PM CDT
Moon 9:30 PM CDT (9/12) 10:11 AM CDT (9/12)
Length of Visible Light 13h 15m
Length of Day
12h 27m
Waning Gibbous, 83% of the Moon is Illuminated
Sep 12
Waning Gibbous
Sep 15
Last Quarter
Sep 24
New
Oct 1
First Quarter
Oct 8
Full

Hourly Weather History & Observations

Time (CDT) Temp. Heat Index Dew Point Humidity Pressure Visibility Wind Dir Wind Speed Gust Speed Precip Events Conditions
12:58 AM 74.1 °F - 72.3 °F 94% 30.02 in 10.0 mi Calm Calm - N/A   Clear
1:58 AM 74.1 °F - 72.0 °F 93% 30.02 in 10.0 mi SE 1.2 mph - N/A   Clear
2:58 AM 73.2 °F - 71.8 °F 95% 30.02 in 10.0 mi ENE 2.3 mph - N/A   Clear
3:58 AM 72.5 °F - 71.1 °F 95% 30.01 in 10.0 mi NW 1.2 mph - N/A   Clear
4:58 AM 72.5 °F - 71.1 °F 95% 30.01 in 10.0 mi NE 2.3 mph - N/A   Clear
5:58 AM 72.0 °F - 70.7 °F 96% 30.03 in 10.0 mi NNE 1.2 mph - N/A   Clear
6:58 AM 72.1 °F - 70.5 °F 95% 30.04 in 10.0 mi Variable 1.2 mph - N/A   Clear
7:58 AM 75.0 °F - 73.0 °F 94% 30.05 in 10.0 mi Variable 2.3 mph - N/A   Clear
8:58 AM 78.4 °F - 74.5 °F 88% 30.06 in 10.0 mi NE 2.3 mph - N/A   Clear
9:58 AM 84.0 °F 91.9 °F 74.8 °F 74% 30.06 in 10.0 mi Variable 1.2 mph - N/A   Clear
10:33 AM 86.0 °F 93.4 °F 73.4 °F 66% 30.06 in 10.0 mi NNW 5.8 mph - N/A   Mostly Cloudy
10:48 AM 86.0 °F 93.4 °F 73.4 °F 66% 30.06 in 10.0 mi NNE 3.5 mph - N/A   Mostly Cloudy
10:58 AM 86.0 °F 93.4 °F 73.4 °F 66% 30.06 in 10.0 mi North 5.8 mph - N/A   Mostly Cloudy
11:03 AM 86.0 °F 93.4 °F 73.4 °F 66% 30.06 in 10.0 mi NNW 4.6 mph - N/A   Mostly Cloudy
11:58 AM 89.2 °F 94.5 °F 70.3 °F 53% 30.04 in 10.0 mi SE 4.6 mph - N/A   Clear
12:58 PM 89.6 °F 94.3 °F 69.3 °F 51% 30.02 in 10.0 mi Variable 4.6 mph - N/A   Clear
1:58 PM 91.6 °F 96.7 °F 69.6 °F 48% 30.00 in 10.0 mi Calm Calm - N/A   Clear
2:58 PM 91.9 °F 97.9 °F 70.3 °F 49% 29.98 in 10.0 mi Variable 4.6 mph - N/A   Clear
3:58 PM 92.8 °F 99.2 °F 70.3 °F 48% 29.96 in 10.0 mi South 4.6 mph - N/A   Clear
4:58 PM 91.2 °F 97.0 °F 70.3 °F 50% 29.95 in 10.0 mi Variable 4.6 mph - N/A   Clear
5:58 PM 90.1 °F 96.3 °F 70.7 °F 53% 29.96 in 10.0 mi South 4.6 mph - N/A   Clear
6:58 PM 86.7 °F 92.9 °F 72.0 °F 61% 29.98 in 10.0 mi SSW 2.3 mph - N/A   Clear
7:58 PM 84.0 °F 88.4 °F 70.2 °F 63% 29.98 in 10.0 mi SSW 4.6 mph - N/A   Clear
8:58 PM 81.3 °F 85.8 °F 71.8 °F 73% 30.01 in 10.0 mi WSW 3.5 mph - N/A   Clear
9:58 PM 78.8 °F - 72.3 °F 80% 30.02 in 10.0 mi West 6.9 mph - N/A   Clear
10:58 PM 79.0 °F - 72.9 °F 81% 30.03 in 10.0 mi West 5.8 mph - N/A   Clear
11:58 PM 78.3 °F - 72.9 °F 83% 30.02 in 10.0 mi West 4.6 mph - N/A   Clear